Disclaimer

Please do not use the information listed here in-flight or in-navigation, as they are not provided to us by the airports but are provided by volunteers, so they might be outdated.

Search


Regions


Airport information page

No radio frequency information is available.

Airport informations:
Latitude: 48° 58' 55.71" N
Longitude: 006° 15' 04.75" E
Elevation: 870 feet - 265 meters
Operating hours: 24 hour operations
Operating agency: Civil government, landing fees and diplomatic clearance may be required
Timezone: UTC+1(+2DT) - Last Sunday in March to last Sunday in October
Fuel: Jet A1+, Jet A1 with icing inhibitor.

Runway information:
04/22 - 10007 x 148 feet< - >3050 x 45 meters

Recent METARs:
LFJL 152300Z AUTO 23007KT 9999 OVC029 04/01 Q1020 TEMPO 0200 FZFG VV///
LFJL 152330Z AUTO 24009KT 9999 OVC027 05/00 Q1019 TEMPO 4000 BR
LFJL 160000Z AUTO 24008KT 9999 OVC026 04/00 Q1019 TEMPO 4000 BR

Airport on the map: